Flag for Sweden Weather past 2 weeks in Karlstad, Sweden

Now
28 °F

Low clouds.


Feels Like: 20 °F
Forecast: 26 / 31 °F
Wind: 8 mph from South

Location: Karlstad

Current Time: Jan 26, 2015 at 2:05:36 AM

Latest Report: Jan 26, 2015 at 1:20 AM


Visibility: N/A

Pressure: 29.98 "Hg

Humidity: 100%

Dew point: 28 °F

Location of KarlstadLocation

Historic Weather in Karlstad — Graph

°F

Karlstad temperature yesterday

Maximum temperature yesterday: 32 °F (at 12:20 AM)
Minimum temperature yesterday: 25 °F (at 9:20 PM)
Average temperature yesterday: 29 °F

Past Weeks' High & Low Weather Summary

 TemperatureHumidityPressure
High41 °F (Jan 12, 5:50 PM)100% (Jan 11, 3:50 AM)30.18 "Hg (Jan 11, 3:50 AM)
Low5 °F (Jan 23, 7:50 AM)70% (Jan 13, 2:20 AM)28.56 "Hg (Jan 11, 12:20 AM)
Average30 °F93%29.64 "Hg
* Reported Jan 11 12:20 AM — Jan 26 12:50 AM, Karlstad, Weather by CustomWeather, © 2014

Note: Actual official high and low records may vary slightly from our data, if they occured in-between our weather recording intervals... More about our weather records

Advertising

Karlstad weather history for previous 24 hours

 ConditionsComfort  
Time TempWeatherWind HumidityBarometerVisibility
12:50 AM
Jan 26
28 °FMostly cloudy.8 mph100%30.01 "HgN/A
12:20 AM28 °FLow clouds.9 mph100%30.04 "HgN/A
11:50 PM
Jan 25
27 °FLow clouds.9 mph100%30.04 "HgN/A
11:20 PM27 °FLow clouds.8 mph100%30.04 "HgN/A
10:20 PM27 °FIce fog.10 mph100%30.07 "Hg2 mi
9:50 PM27 °FIce fog.9 mph100%30.09 "Hg4 mi
9:20 PM25 °FLow clouds.12 mph100%30.09 "Hg5 mi
8:50 PM27 °FLow clouds.6 mph100%30.09 "HgN/A
8:20 PM27 °FIce fog.7 mph100%30.09 "Hg6 mi
7:50 PM27 °FPassing clouds.5 mph100%30.09 "HgN/A
7:20 PM27 °FPassing clouds.8 mph100%30.09 "HgN/A
6:50 PM27 °FPassing clouds.6 mph100%30.09 "HgN/A
6:20 PM27 °FPassing clouds.5 mph100%30.12 "HgN/A
5:50 PM27 °FPassing clouds.5 mph100%30.12 "HgN/A
5:20 PM27 °FPassing clouds.6 mph100%30.12 "HgN/A
4:50 PM27 °FPassing clouds.3 mph100%30.12 "HgN/A
4:20 PM28 °FPassing clouds.3 mph93%30.12 "HgN/A
3:50 PM28 °FPartly sunny.5 mph93%30.09 "HgN/A
3:20 PM28 °FPartly sunny.3 mph93%30.09 "HgN/A
2:50 PM28 °FPartly sunny.3 mph93%30.09 "HgN/A
2:20 PM28 °FLow clouds.3 mph93%30.09 "HgN/A
1:50 PM28 °FLow clouds.3 mph93%30.09 "HgN/A
1:20 PM28 °FLow clouds.3 mph93%30.09 "HgN/A
12:50 PM28 °FLow clouds.6 mph93%30.09 "HgN/A
12:20 PM28 °FPartly sunny.5 mph93%30.07 "HgN/A
11:50 AM30 °FChilly.3 mph86%30.07 "HgN/A
11:20 AM30 °FPartly sunny.3 mph86%30.07 "HgN/A
10:50 AM30 °FOvercast.2 mph93%30.07 "HgN/A
10:20 AM30 °FOvercast.3 mph93%30.07 "HgN/A
9:50 AM30 °FOvercast.2 mph93%30.04 "HgN/A
9:20 AM30 °FOvercast.3 mph93%30.04 "HgN/A
8:50 AM30 °FOvercast.2 mph93%30.04 "HgN/A
8:20 AM30 °FOvercast.2 mph93%30.04 "HgN/A
7:50 AM30 °FOvercast.2 mph93%30.01 "HgN/A
7:20 AM30 °FOvercast.1 mph93%30.01 "HgN/A
6:50 AM30 °FOvercast.2 mph93%29.98 "HgN/A
6:20 AM30 °FOvercast.5 mph93%29.98 "HgN/A
5:50 AM30 °FOvercast.3 mph93%29.95 "HgN/A
5:20 AM30 °FOvercast.3 mph100%29.95 "HgN/A
4:20 AM32 °FOvercast.3 mph93%29.92 "HgN/A
3:50 AM32 °FOvercast.3 mph93%29.92 "HgN/A
3:20 AM32 °FOvercast.3 mph93%29.92 "HgN/A
2:50 AM32 °FOvercast.2 mph93%29.89 "HgN/A
2:20 AM30 °FIce fog.3 mph100%29.89 "Hg3 mi
Weather by CustomWeather, © 2014

See weather overviewHow to use our weather pages